www.pogodaiklimat.ru

Погода и климат >> Архив погоды >> Россия >> Калининградская область >> Советск


ПОГОДА в Советске

  • Прогноз погоды в Советске
  • Монитор погоды в Советске

АРХИВ ПОГОДЫ в Советске

Время (UTC), дата Ветер
(напр.,м/с)
 
Видим.   Явления Облачность Т
(С)
Тd
(С)
f
(%)
Тe
(С)
Тes
(С)
Комфортность P
(гПа)
Po
(гПа)
Тmin
(С)
Tmax
(С)
R
(мм)
R24
(мм)
S
(см)
06 17.02 штиль 0-6
{9}
50 км дымка ?/? +4.6 -0.8 68 +4 +4 1018.4 1013.7 +4.5
09 17.02 З 3-6
{7}
4000 м дымка 10/10 600 м
[Sc]
+4.5 -0.7 69 +1 +1 1020.4 1015.7
12 17.02 З 3-5
{6}
10 км 10/10 600 м
[Sc]
+5.2 -0.2 68 +2 +2 1021.1 1016.4
15 17.02 З 2-4
{5}
4000 м дымка 10/10 600 м
[Sc]
+4.1 -0.5 72 +2 +2 1021.7 1017.0
18 17.02 З 1-2
{5}
10 км 10/10 600 м
[Sc]
+3.5 -0.8 73 +2 +2 1022.5 1017.8 +5.2
21 17.02 З 2-4
{5}
4000 м в посл. час ливневой дождь 10/10 600 м
[Sc]
+3.3 -0.9 74 +1 +1 1022.8 1018.1
00 18.02 СЗ 1-3
{5}
2000 м дымка {ливн. осадки} 10/10 600 м
[Sc]
+2.5 -1.7 74 +1 +1 1023.8 1019.1
03 18.02 С 1-1
{4}
2000 м дымка 10/10 600 м
[Sc]
+2.3 -1.9 74 +1 +1 1023.7 1019.0 +2.2 0.4
06 18.02 Ю 1-1
{3}
4000 м дымка {туман} 9/9 600 м
[Sc]
+2.0 -2.1 74 +1 +1 1023.9 1019.2 +1.9 0.4
09 18.02 Ю 2-4
{4}
10 км 10/10 600 м
[Sc]
+3.1 -1.3 73 0 0 1024.7 1019.9
12 18.02 Ю 3-6
{6}
10 км 10/10 600 м
[Sc]
+3.8 -1.2 70 0 0 1023.7 1019.0
15 18.02 Ю 3-5
{7}
20 км 10/10 600 м
[Sc]
+3.8 -1.4 69 0 0 1021.7 1017.0
18 18.02 Ю 2-3
{7}
20 км ясно +1.9 -2.6 72 -1 -1 1020.4 1015.6 +4.1
21 18.02 Ю 3-5
{5}
20 км ясно +1.5 -3.1 71 -3 -3 1018.8 1014.1
00 19.02 Ю 3-5
{5}
10 км ясно +0.8 -3.5 73 -3 -3 1017.2 1012.5
03 19.02 Ю 3-5
{5}
4000 м дымка ясно +0.8 -3.5 73 -3 -3 1014.3 1009.6 +0.5
06 19.02 Ю 3-5
{5}
4000 м дымка ясно +0.5 -3.9 72 -4 -4 1011.9 1007.2 +0.4
09 19.02 Ю 5-8
{8}
10 км 4/0 2000 м
[Ac trans]
+4.2 -2.1 64 -0 +1 1009.8 1005.2
12 19.02 ЮЗ 4-6
{9}
10 км 6/0 2000 м
[Ac trans]
+9.5 -1.4 46 +7 +8 1006.8 1002.3
15 19.02 З 4-8
{9}
10 км 8/8 600 м
[Sc]
+7.2 -2.7 49 +4 +4 1007.1 1002.5
18 19.02 З 4-10
{13}
10 км {ливн. осадки} 10/10 600 м
[Sc]
+4.3 -0.9 69 0 0 1008.0 1003.4 +9.9 2
21 19.02 ЮЗ 4-7
{11}
20 км 10/10 600 м
[Sc]
+5.4 -0.9 64 +2 +2 1006.9 1002.3
00 20.02 З 6-10
{11}
20 км 10/10 600 м
[Sc]
+4.6 -0.7 68 -0 -0 1006.0 1001.4
03 20.02 З 6-11
{13}
20 км 10/10 600 м
[Sc]
+4.0 -1.7 66 -1 -1 1005.4 1000.8 +4.0 2
06 20.02 З 5-10
{13}
20 км 10/10 600 м
[Sc]
+3.9 -2.3 64 -1 -1 1006.5 1001.8 +3.7
09 20.02 З 5-10
{12}
20 км 10/10 600 м
[]
+4.4 -2.2 62 0 0 1007.8 1003.2
12 20.02 З 6-11
{13}
20 км 10/10 600 м
[Sc]
+4.5 -2.9 59 -0 -0 1009.0 1004.4
15 20.02 СЗ 6-11
{13}
20 км 8/8 600 м
[Sc]
+2.7 -6.9 49 -2 -2 1012.3 1007.6
18 20.02 З 4-6
{12}
20 км ясно +0.7 -8.0 52 -4 -4 1015.5 1010.8 +4.7
21 20.02 СЗ 4-6
{6}
20 км ясно +0.5 -8.0 53 -4 -4 1017.3 1012.6
00 21.02 СЗ 3-4
{6}
20 км ясно -0.7 -8.1 57 -5 -5 1018.9 1014.1
03 21.02 СЗ 3-4
{4}
20 км ясно -1.0 -9.4 53 -5 -5 1019.6 1014.8 -1.6
06 21.02 С 2-3
{4}
20 км 8/0
[Ci sp]
-1.9 -9.4 56 -5 -5 1020.7 1015.9 -1.9
09 21.02 -5
{7}
20 км н/о -0.4 -1.1 95 -5 -4 1021.3 1016.5
12 21.02 СВ 1-3
{4}
20 км 8/8 600 м
[]
+0.7 -11.0 41 -0 +1 1021.4 1016.6
15 21.02 В 2-4
{5}
20 км 10/10 600 м
[Sc]
+0.3 -13.0 36 -2 -2 1021.5 1016.7
18 21.02 В 3-4
{6}
20 км 10/10 600 м
[Sc]
-0.9 -15.0 33 -5 -5 1023.1 1018.3 +1.4
21 21.02 СВ 3-7
{7}
20 км ясно -2.1 -17.8 29 -6 -6 1025.7 1020.9
00 22.02 СВ 4-7
{9}
20 км ясно -4.1 -15.9 39 -10 -10 1028.8 1023.9
03 22.02 СВ 5-7
{8}
20 км ясно -5.9 -16.9 41 -13 -13 1032.4 1027.5 -6.0
06 22.02 СВ 4-7
{8}
20 км ясно -6.9 -16.8 45 -13 -13 1036.6 1031.6 -7.0
09 22.02 СВ 5-8
{8}
20 км ясно -3.2 -18.0 31 -9 -7 1039.9 1035.0
12 22.02 С 5-8
{10}
20 км ясно -0.6 -18.6 24 -6 -4 1041.3 1036.3
15 22.02 С 5-7
{8}
20 км ясно -1.2 -17.7 27 -6 -6 1041.9 1037.0
18 22.02 С 3-5
{8}
20 км ясно -3.6 -15.7 39 -8 -8 1043.3 1038.4 -0.3
21 22.02 С 2-3
{5}
20 км ясно -5.0 -15.8 42 -9 -9 1044.9 1039.9
00 23.02 Ю 1-2
{3}
20 км ясно -6.2 -15.4 48 -8 -8 1045.8 1040.8
03 23.02 ЮЗ 1-2
{2}
20 км 9/9 600 м
[Sc]
-5.3 -14.1 50 -7 -7 1045.0 1040.0 -7.0
06 23.02 ЮЗ 3-5
{5}
20 км 9/9 600 м
[Sc]
-4.7 -14.9 45 -9 -9 1044.5 1039.5 -7.0
09 23.02 ЮЗ 4-6
{7}
20 км 10/10 600 м
[Sc]
-1.4 -16.7 30 -6 -6 1043.6 1038.7
12 23.02 ЮЗ 4-7
{8}
20 км {ливн. осадки} 10/10 600 м
[Sc]
+0.1 -13.5 35 -4 -4 1042.3 1037.4
15 23.02 З 3-7
{11}
20 км 9/9 600 м
[Sc]
-0.1 -14.5 33 -4 -4 1039.9 1035.0
18 23.02 ЮЗ 3-5
{8}
20 км 6/6 600 м
[Sc]
-0.9 -12.7 40 -5 -5 1038.2 1033.3 +0.5
21 23.02 ЮЗ 3-6
{7}
20 км 10/10 600 м
[Sc]
-0.5 -12.0 41 -4 -4 1036.4 1031.6
00 24.02 ЮЗ 3-5
{7}
20 км 10/10 600 м
[Sc]
-0.3 -11.4 43 -4 -4 1034.8 1030.0

 

Местоположение метеостанции Советск (Калининградская область, Россия): широта 55.08 долгота 21.93 высота над уровнем моря 36 м.

В архиве по умолчанию представлена погода в Советске за последнюю неделю. Архивные данные за месяц целиком и за предыдущие месяцы, начиная с января 2011 года, Вы можете получить, выбрав интересующий диапазон дат из раскрывающегося списка и нажав кнопку "Ввод!".


*Определитесь, кто Вы:
робот инопланетянин человек

Внимание! Время в таблицах - всемирное. Для получения местного времени необходимо прибавить поправку, которая равна 2 ч.

Смотрите также архив погоды в соседних городах и на ближайших метеорологических станциях:

Погода в Шилуте (Литва) (43 км)
Погода в Черняховске (Калининградская область, Россия) (51 км)
Погода в Лаукуве (Литва) (63 км)
Погода в Ниде (Литва) (64 км)
Погода в Рыбачем (Калининградская область, Россия) (70 км)
Погода в Кибартае (Литва) (74 км)
Погода в Расейняе (Литва) (85 км)
Погода в Виштынце (Калининградская область, Россия) (88 км)
Погода в Железнодорожном (Калининградская область, Россия) (89 км)
Погода в Kлайпеде (Литва) (90 км)

Пояснения к столбцам:

Ветер - указаны скорость ветра в м/с - средняя за 10 мин, порывы в срок и между сроками (в фигурных скобках) и направление, откуда дует ветер: С - северный, СВ - северо-восточный, В - восточный, ЮВ - юго-восточный, Ю - южный, ЮЗ - юго-западный, З - западный, СЗ - северо-западный.
Видимость - горизонтальная дальность видимости в метрах или километрах. При видимости от 1 до 10 км при отсутствии осадков обычно наблюдается дымка, при ухудшении видимости до 1 км и менее - туман. В сухую погоду видимость может ухудшаться дымом, пылью или мглою.
Явления - указаны атмосферные явления, наблюдавшиеся в срок или в последний час перед сроком; фигурными скобками обозначены явления, наблюдавшиеся между сроками (за 1-3 часа до срока); квадратными скобками обозначены град или гололедные отложения с указанием их диаметра в мм.
Облачность - указаны через наклонную черту общая и нижняя облачность в баллах и высота нижней границы облаков в метрах; квадратными скобками обозначены формы облаков: Ci - перистые, Cs - перисто-слоистые, Cc - перисто-кучевые, Ac - высококучевые, As - высокослоистые, Sc - слоисто-кучевые, Ns - слоисто-дождевые, Cu - кучевые, Cb - кучево-дождевые. Подробнее классификацию облаков см. в Атласе облаков (PDF).
T - Температура воздуха - температура, измеренная на высоте 2 м над землей.
Td - Температура точки росы - температура, при понижении до которой содержащийся в воздухе водяной пар достигнет насыщения.
f - Относительная влажность воздуха - влажноcть воздуха, измеренная на высоте 2 м над землей.
Te - Эффективная температура - температура, которую ощущает одетый по сезону человек в тени. Характеристика душности погоды. При расчете учитывается влияние влажности воздуха и скорости ветра на теплоощущения человека.
Tes - Эффективная температура на солнце - температура, которую ощущает человек, с поправкой на солнечный нагрев. Характеристика знойности погоды. Зависит от высоты солнца над горизонтом, облачности и скорости ветра. Ночью, в пасмурную погоду, а также при ветре 12 м/с и более поправка равна нулю.
P - Атмосферное давление - приведенное к уровню моря атмосферное давление.
Po - Атмосферное давление - измеренное на уровне метеостанции атмосферное давление.
Tmin - Минимальная температура - минимум температуры воздуха на высоте 2 м над землей.
Tmax - Максимальная температура - максимум температуры воздуха на высоте 2 м над землей.
R - Количество осадков - Количество выпавших осадков за период времени, мм. При наведении курсора мыши на число - период времени, за который выпало указанное количество осадков.
R24 - Количество осадков - Количество выпавших осадков за 24 часа, мм.
S - Снежный покров - Высота снежного покрова, см. При наведении курсора мыши на число - состояние снежного покрова и степень покрытия местности в баллах.